Time,TemperatureF,DewpointF,PressureIn,WindDirection,WindDirectionDegrees,WindSpeedMPH,WindSpeedGustMPH,Humidity,HourlyPrecipIn,Conditions,Clouds,dailyrainin,SoftwareType,DateUTC
2017-04-26 00:03:00,75.8,54.7,29.48,South,182,9.0,9.0,48,0.00,,,0.00,WeatherCatV2.41B14,2017-04-26 05:03:00,
2017-04-26 00:08:00,75.8,54.1,29.48,SSE,158,0.0,14.0,47,0.00,,,0.00,WeatherCatV2.41B14,2017-04-26 05:08:00,
2017-04-26 00:13:00,75.8,54.1,29.47,SW,234,6.0,8.0,47,0.00,,,0.00,WeatherCatV2.41B14,2017-04-26 05:13:00,
2017-04-26 00:18:00,75.8,53.5,29.47,South,172,3.0,9.0,46,0.00,,,0.00,WeatherCatV2.41B14,2017-04-26 05:18:00,
2017-04-26 00:23:00,75.8,53.5,29.47,SSE,157,1.0,3.0,46,0.00,,,0.00,WeatherCatV2.41B14,2017-04-26 05:23:00,
2017-04-26 00:28:00,75.8,52.9,29.47,South,173,3.0,4.0,45,0.00,,,0.00,WeatherCatV2.41B14,2017-04-26 05:28:00,
2017-04-26 00:33:00,75.8,52.9,29.47,SSE,160,0.0,4.0,45,0.00,,,0.00,WeatherCatV2.41B14,2017-04-26 05:33:00,
2017-04-26 00:38:00,75.8,52.9,29.47,SSE,159,0.0,1.0,45,0.00,,,0.00,WeatherCatV2.41B14,2017-04-26 05:38:00,
2017-04-26 00:43:00,75.8,52.3,29.47,SSW,192,2.0,9.0,44,0.00,,,0.00,WeatherCatV2.41B14,2017-04-26 05:43:00,
2017-04-26 00:48:00,75.8,52.3,29.47,SSE,167,0.0,4.0,44,0.00,,,0.00,WeatherCatV2.41B14,2017-04-26 05:48:00,
2017-04-26 00:53:00,75.8,51.7,29.46,South,169,0.0,9.0,43,0.00,,,0.00,WeatherCatV2.41B14,2017-04-26 05:53:00,
2017-04-26 00:58:00,75.9,51.8,29.46,SSE,155,0.0,5.0,43,0.00,,,0.00,WeatherCatV2.41B14,2017-04-26 05:58:00,
2017-04-26 01:03:00,75.8,51.0,29.46,SSE,166,0.0,8.0,42,0.00,,,0.00,WeatherCatV2.41B14,2017-04-26 06:03:00,
2017-04-26 01:08:00,75.8,51.0,29.46,SSE,148,0.0,2.0,42,0.00,,,0.00,WeatherCatV2.41B14,2017-04-26 06:08:00,
2017-04-26 01:13:00,75.8,51.0,29.46,SSE,153,0.0,6.0,42,0.00,,,0.00,WeatherCatV2.41B14,2017-04-26 06:13:00,
2017-04-26 01:18:00,75.8,50.4,29.46,South,175,2.0,2.0,41,0.00,,,0.00,WeatherCatV2.41B14,2017-04-26 06:18:00,
2017-04-26 01:23:00,75.7,50.3,29.46,South,184,0.0,5.0,41,0.00,,,0.00,WeatherCatV2.41B14,2017-04-26 06:23:00,
2017-04-26 01:28:00,75.6,50.2,29.46,SSE,167,4.0,9.0,41,0.00,,,0.00,WeatherCatV2.41B14,2017-04-26 06:28:00,
2017-04-26 01:33:00,75.5,50.1,29.46,South,179,4.0,11.0,41,0.00,,,0.00,WeatherCatV2.41B14,2017-04-26 06:33:00,
2017-04-26 01:38:00,75.4,50.0,29.46,SE,138,0.0,7.0,41,0.00,,,0.00,WeatherCatV2.41B14,2017-04-26 06:38:00,
2017-04-26 01:43:00,75.4,49.4,29.45,South,178,0.0,9.0,40,0.00,,,0.00,WeatherCatV2.41B14,2017-04-26 06:43:00,
2017-04-26 01:48:00,75.3,49.3,29.45,SSW,205,0.0,4.0,40,0.00,,,0.00,WeatherCatV2.41B14,2017-04-26 06:48:00,
2017-04-26 01:49:00,75.3,49.3,29.45,SSE,157,2.0,6.0,40,0.00,,,0.00,WeatherCatV2.41B14,2017-04-26 06:49:00,
2017-04-26 01:54:00,75.3,49.3,29.45,SSE,164,0.0,4.0,40,0.00,,,0.00,WeatherCatV2.41B14,2017-04-26 06:54:00,
2017-04-26 01:59:00,75.2,49.2,29.44,SSE,161,0.0,8.0,40,0.00,,,0.00,WeatherCatV2.41B14,2017-04-26 06:59:00,
2017-04-26 02:04:00,75.2,49.2,29.44,SSW,192,0.0,3.0,40,0.00,,,0.00,WeatherCatV2.41B14,2017-04-26 07:04:00,
2017-04-26 02:09:00,75.2,48.5,29.44,SSW,205,4.0,6.0,39,0.00,,,0.00,WeatherCatV2.41B14,2017-04-26 07:09:00,
2017-04-26 02:14:00,75.2,48.5,29.44,SSE,147,0.0,9.0,39,0.00,,,0.00,WeatherCatV2.41B14,2017-04-26 07:14:00,
2017-04-26 02:19:00,75.2,48.5,29.44,SSW,202,2.0,8.0,39,0.00,,,0.00,WeatherCatV2.41B14,2017-04-26 07:19:00,
2017-04-26 02:24:00,75.2,48.5,29.44,SSE,163,0.0,10.0,39,0.00,,,0.00,WeatherCatV2.41B14,2017-04-26 07:24:00,
2017-04-26 02:25:00,75.2,48.5,29.44,SSE,148,3.0,10.0,39,0.00,,,0.00,WeatherCatV2.41B14,2017-04-26 07:25:00,
2017-04-26 02:30:00,75.2,48.5,29.44,SSE,161,0.0,5.0,39,0.00,,,0.00,WeatherCatV2.41B14,2017-04-26 07:30:00,
2017-04-26 02:35:00,75.1,48.4,29.43,SSW,199,0.0,3.0,39,0.00,,,0.00,WeatherCatV2.41B14,2017-04-26 07:35:00,
2017-04-26 02:40:00,75.1,47.7,29.44,South,175,0.0,0.0,38,0.00,,,0.00,WeatherCatV2.41B14,2017-04-26 07:40:00,
2017-04-26 02:45:00,75.0,47.7,29.44,SE,141,0.0,0.0,38,0.00,,,0.00,WeatherCatV2.41B14,2017-04-26 07:45:00,
2017-04-26 02:50:00,75.0,47.7,29.44,SSE,165,0.0,1.0,38,0.00,,,0.00,WeatherCatV2.41B14,2017-04-26 07:50:00,
2017-04-26 02:55:00,75.0,47.7,29.44,South,171,0.0,5.0,38,0.00,,,0.00,WeatherCatV2.41B14,2017-04-26 07:55:00,
2017-04-26 03:00:00,74.9,47.6,29.44,South,182,3.0,5.0,38,0.00,,,0.00,WeatherCatV2.41B14,2017-04-26 08:00:00,
2017-04-26 03:05:00,74.9,47.6,29.44,WSW,249,0.0,7.0,38,0.00,,,0.00,WeatherCatV2.41B14,2017-04-26 08:05:00,
2017-04-26 03:10:00,74.9,47.6,29.44,SSW,200,0.0,6.0,38,0.00,,,0.00,WeatherCatV2.41B14,2017-04-26 08:10:00,
2017-04-26 03:15:00,74.8,47.5,29.43,SSW,208,0.0,6.0,38,0.00,,,0.00,WeatherCatV2.41B14,2017-04-26 08:15:00,
2017-04-26 03:20:00,74.8,47.5,29.43,SSE,163,0.0,0.0,38,0.00,,,0.00,WeatherCatV2.41B14,2017-04-26 08:20:00,
2017-04-26 03:25:00,74.8,47.5,29.43,SE,133,0.0,5.0,38,0.00,,,0.00,WeatherCatV2.41B14,2017-04-26 08:25:00,
2017-04-26 03:30:00,74.7,47.4,29.43,South,174,2.0,8.0,38,0.00,,,0.00,WeatherCatV2.41B14,2017-04-26 08:30:00,
2017-04-26 03:35:00,74.7,47.4,29.43,South,169,0.0,1.0,38,0.00,,,0.00,WeatherCatV2.41B14,2017-04-26 08:35:00,
2017-04-26 03:40:00,74.6,47.3,29.42,SSE,168,0.0,0.0,38,0.00,,,0.00,WeatherCatV2.41B14,2017-04-26 08:40:00,
2017-04-26 03:45:00,74.6,46.6,29.42,SW,225,0.0,4.0,37,0.00,,,0.00,WeatherCatV2.41B14,2017-04-26 08:45:00,
2017-04-26 03:50:00,74.6,46.6,29.42,South,187,0.0,5.0,37,0.00,,,0.00,WeatherCatV2.41B14,2017-04-26 08:50:00,
2017-04-26 03:55:00,74.6,46.6,29.41,South,178,0.0,7.0,37,0.00,,,0.00,WeatherCatV2.41B14,2017-04-26 08:55:00,
2017-04-26 04:00:00,74.6,46.6,29.41,South,182,0.0,8.0,37,0.00,,,0.00,WeatherCatV2.41B14,2017-04-26 09:00:00,
2017-04-26 04:05:00,74.6,46.6,29.41,ESE,121,9.0,9.0,37,0.00,,,0.00,WeatherCatV2.41B14,2017-04-26 09:05:00,
2017-04-26 04:10:00,74.6,46.6,29.40,South,173,0.0,7.0,37,0.00,,,0.00,WeatherCatV2.41B14,2017-04-26 09:10:00,
2017-04-26 04:15:00,74.6,46.6,29.40,SSE,152,3.0,9.0,37,0.00,,,0.00,WeatherCatV2.41B14,2017-04-26 09:15:00,
2017-04-26 04:20:00,74.5,46.5,29.40,SSW,192,0.0,5.0,37,0.00,,,0.00,WeatherCatV2.41B14,2017-04-26 09:20:00,
2017-04-26 04:25:00,74.5,46.5,29.40,SE,138,0.0,11.0,37,0.00,,,0.00,WeatherCatV2.41B14,2017-04-26 09:25:00,
2017-04-26 04:30:00,74.5,46.5,29.40,SW,225,2.0,6.0,37,0.00,,,0.00,WeatherCatV2.41B14,2017-04-26 09:30:00,
2017-04-26 04:35:00,74.4,45.7,29.40,SE,130,0.0,6.0,36,0.00,,,0.00,WeatherCatV2.41B14,2017-04-26 09:35:00,
2017-04-26 04:40:00,74.4,45.7,29.40,South,173,0.0,5.0,36,0.00,,,0.00,WeatherCatV2.41B14,2017-04-26 09:40:00,
2017-04-26 04:45:00,74.4,45.7,29.40,South,169,0.0,0.0,36,0.00,,,0.00,WeatherCatV2.41B14,2017-04-26 09:45:00,
2017-04-26 04:50:00,74.4,45.7,29.40,SW,223,3.0,5.0,36,0.00,,,0.00,WeatherCatV2.41B14,2017-04-26 09:50:00,
2017-04-26 04:55:00,74.4,45.7,29.40,SSE,165,0.0,4.0,36,0.00,,,0.00,WeatherCatV2.41B14,2017-04-26 09:55:00,
2017-04-26 05:00:00,74.4,45.7,29.40,SSW,203,0.0,3.0,36,0.00,,,0.00,WeatherCatV2.41B14,2017-04-26 10:00:00,
2017-04-26 05:05:00,74.4,45.7,29.40,SSE,150,6.0,9.0,36,0.00,,,0.00,WeatherCatV2.41B14,2017-04-26 10:05:00,
2017-04-26 05:10:00,74.4,45.7,29.40,SSW,211,5.0,7.0,36,0.00,,,0.00,WeatherCatV2.41B14,2017-04-26 10:10:00,
2017-04-26 05:15:00,74.4,45.7,29.40,SE,138,7.0,8.0,36,0.00,,,0.00,WeatherCatV2.41B14,2017-04-26 10:15:00,
2017-04-26 05:20:00,74.5,45.8,29.40,SE,144,4.0,6.0,36,0.00,,,0.00,WeatherCatV2.41B14,2017-04-26 10:20:00,
2017-04-26 05:25:00,74.4,45.7,29.41,SSE,167,4.0,5.0,36,0.00,,,0.00,WeatherCatV2.41B14,2017-04-26 10:25:00,
2017-04-26 05:30:00,74.4,45.7,29.41,SSE,155,0.0,0.0,36,0.00,,,0.00,WeatherCatV2.41B14,2017-04-26 10:30:00,
2017-04-26 05:35:00,74.4,45.0,29.41,SSW,209,0.0,5.0,35,0.00,,,0.00,WeatherCatV2.41B14,2017-04-26 10:35:00,
2017-04-26 05:40:00,74.4,45.0,29.41,SSW,202,0.0,0.0,35,0.00,,,0.00,WeatherCatV2.41B14,2017-04-26 10:40:00,
2017-04-26 05:45:00,74.4,45.0,29.42,South,173,0.0,0.0,35,0.00,,,0.00,WeatherCatV2.41B14,2017-04-26 10:45:00,
2017-04-26 05:46:00,74.4,45.0,29.42,South,174,0.0,1.0,35,0.00,,,0.00,WeatherCatV2.41B14,2017-04-26 10:46:00,
2017-04-26 05:51:00,74.4,45.0,29.42,South,177,0.0,4.0,35,0.00,,,0.00,WeatherCatV2.41B14,2017-04-26 10:51:00,
2017-04-26 05:52:00,74.4,45.0,29.42,South,176,0.0,0.0,35,0.00,,,0.00,WeatherCatV2.41B14,2017-04-26 10:52:00,
2017-04-26 05:57:00,74.4,45.0,29.41,South,172,0.0,2.0,35,0.00,,,0.00,WeatherCatV2.41B14,2017-04-26 10:57:00,
2017-04-26 06:02:00,74.4,45.0,29.42,South,169,0.0,0.0,35,0.00,,,0.00,WeatherCatV2.41B14,2017-04-26 11:02:00,
2017-04-26 06:07:00,74.4,45.0,29.42,SSW,209,0.0,1.0,35,0.00,,,0.00,WeatherCatV2.41B14,2017-04-26 11:07:00,
2017-04-26 06:12:00,74.4,45.0,29.42,SW,226,0.0,1.0,35,0.00,,,0.00,WeatherCatV2.41B14,2017-04-26 11:12:00,
2017-04-26 06:17:00,74.3,44.9,29.42,SSE,152,0.0,5.0,35,0.00,,,0.00,WeatherCatV2.41B14,2017-04-26 11:17:00,
2017-04-26 06:22:00,74.3,44.9,29.42,South,180,0.0,4.0,35,0.00,,,0.00,WeatherCatV2.41B14,2017-04-26 11:22:00,
2017-04-26 06:27:00,74.3,44.9,29.43,South,180,0.0,0.0,35,0.00,,,0.00,WeatherCatV2.41B14,2017-04-26 11:27:00,
2017-04-26 06:32:00,74.2,44.8,29.43,SW,214,0.0,4.0,35,0.00,,,0.00,WeatherCatV2.41B14,2017-04-26 11:32:00,
2017-04-26 06:36:00,74.2,44.8,29.43,SW,214,0.0,0.0,35,0.00,,,0.00,WeatherCatV2.41B14,2017-04-26 11:36:00,
2017-04-26 06:41:00,74.2,44.8,29.44,SW,214,0.0,0.0,35,0.00,,,0.00,WeatherCatV2.41B14,2017-04-26 11:41:00,
2017-04-26 06:46:00,74.1,43.9,29.45,SW,214,0.0,0.0,34,0.00,,,0.00,WeatherCatV2.41B14,2017-04-26 11:46:00,
2017-04-26 06:52:00,74.1,43.9,29.45,SW,214,0.0,1.0,34,0.00,,,0.00,WeatherCatV2.41B14,2017-04-26 11:52:00,
2017-04-26 06:56:00,74.1,43.9,29.45,WSW,241,0.0,5.0,34,0.00,,,0.00,WeatherCatV2.41B14,2017-04-26 11:56:00,
2017-04-26 07:02:00,74.1,43.9,29.46,WSW,241,0.0,1.0,34,0.00,,,0.00,WeatherCatV2.41B14,2017-04-26 12:02:00,
2017-04-26 07:06:00,74.1,43.9,29.46,WSW,256,0.0,0.0,34,0.00,,,0.00,WeatherCatV2.41B14,2017-04-26 12:06:00,
2017-04-26 07:11:00,74.1,43.9,29.47,WSW,256,0.0,2.0,34,0.00,,,0.00,WeatherCatV2.41B14,2017-04-26 12:11:00,
2017-04-26 07:16:00,74.0,43.8,29.47,WSW,256,0.0,0.0,34,0.00,,,0.00,WeatherCatV2.41B14,2017-04-26 12:16:00,
2017-04-26 07:22:00,74.1,43.9,29.49,NNW,334,4.0,8.0,34,0.00,,,0.00,WeatherCatV2.41B14,2017-04-26 12:22:00,
2017-04-26 07:27:00,74.1,43.1,29.49,NNW,334,0.0,1.0,33,0.00,,,0.00,WeatherCatV2.41B14,2017-04-26 12:27:00,
2017-04-26 07:32:00,74.1,43.1,29.50,NNW,334,4.0,4.0,33,0.00,,,0.00,WeatherCatV2.41B14,2017-04-26 12:32:00,
2017-04-26 07:36:00,74.2,43.2,29.50,NNW,336,0.0,4.0,33,0.00,,,0.00,WeatherCatV2.41B14,2017-04-26 12:36:00,
2017-04-26 07:41:00,74.2,43.2,29.51,NNW,336,0.0,4.0,33,0.00,,,0.00,WeatherCatV2.41B14,2017-04-26 12:41:00,
2017-04-26 07:46:00,74.2,43.2,29.51,NNW,338,0.0,5.0,33,0.00,,,0.00,WeatherCatV2.41B14,2017-04-26 12:46:00,
2017-04-26 07:51:00,74.2,43.2,29.52,NNW,340,0.0,1.0,33,0.00,,,0.00,WeatherCatV2.41B14,2017-04-26 12:51:00,
2017-04-26 07:56:00,74.2,43.2,29.51,NNW,340,0.0,0.0,33,0.00,,,0.00,WeatherCatV2.41B14,2017-04-26 12:56:00,
2017-04-26 08:01:00,74.2,43.2,29.51,NNW,340,0.0,0.0,33,0.00,,,0.00,WeatherCatV2.41B14,2017-04-26 13:01:00,
2017-04-26 08:06:00,74.2,43.2,29.51,NNW,340,0.0,0.0,33,0.00,,,0.00,WeatherCatV2.41B14,2017-04-26 13:06:00,
2017-04-26 08:11:00,74.2,42.4,29.51,NNW,340,0.0,0.0,32,0.00,,,0.00,WeatherCatV2.41B14,2017-04-26 13:11:00,
2017-04-26 08:16:00,74.2,42.4,29.51,NNW,340,0.0,0.0,32,0.00,,,0.00,WeatherCatV2.41B14,2017-04-26 13:16:00,
2017-04-26 08:21:00,74.3,42.5,29.51,NNW,340,0.0,0.0,32,0.00,,,0.00,WeatherCatV2.41B14,2017-04-26 13:21:00,
2017-04-26 08:26:00,74.3,42.5,29.50,NNW,340,0.0,0.0,32,0.00,,,0.00,WeatherCatV2.41B14,2017-04-26 13:26:00,
2017-04-26 08:31:00,74.5,42.7,29.50,NNW,340,0.0,0.0,32,0.00,,,0.00,WeatherCatV2.41B14,2017-04-26 13:31:00,
2017-04-26 08:36:00,74.6,42.0,29.50,NNW,340,0.0,0.0,31,0.00,,,0.00,WeatherCatV2.41B14,2017-04-26 13:36:00,
2017-04-26 08:41:00,74.8,42.1,29.51,NNW,340,0.0,0.0,31,0.00,,,0.00,WeatherCatV2.41B14,2017-04-26 13:41:00,
2017-04-26 08:46:00,75.0,42.3,29.51,NNW,340,0.0,0.0,31,0.00,,,0.00,WeatherCatV2.41B14,2017-04-26 13:46:00,
2017-04-26 08:51:00,75.3,41.7,29.51,NNW,340,0.0,0.0,30,0.00,,,0.00,WeatherCatV2.41B14,2017-04-26 13:51:00,
2017-04-26 08:56:00,75.5,41.9,29.50,NNW,340,0.0,0.0,30,0.00,,,0.00,WeatherCatV2.41B14,2017-04-26 13:56:00,
2017-04-26 09:01:00,75.7,42.0,29.50,NNW,340,0.0,0.0,30,0.00,,,0.00,WeatherCatV2.41B14,2017-04-26 14:01:00,
2017-04-26 09:06:00,76.0,42.3,29.50,NNW,338,0.0,1.0,30,0.00,,,0.00,WeatherCatV2.41B14,2017-04-26 14:06:00,
2017-04-26 09:11:00,76.3,42.6,29.50,WNW,295,0.0,4.0,30,0.00,,,0.00,WeatherCatV2.41B14,2017-04-26 14:11:00,
2017-04-26 09:16:00,76.6,42.8,29.50,WNW,291,0.0,0.0,30,0.00,,,0.00,WeatherCatV2.41B14,2017-04-26 14:16:00,
2017-04-26 09:21:00,76.8,43.0,29.50,WNW,288,0.0,5.0,30,0.00,,,0.00,WeatherCatV2.41B14,2017-04-26 14:21:00,
2017-04-26 09:22:00,76.8,43.0,29.50,WNW,288,0.0,5.0,30,0.00,,,0.00,WeatherCatV2.41B14,2017-04-26 14:22:00,
2017-04-26 09:27:00,77.3,43.4,29.50,WNW,288,0.0,0.0,30,0.00,,,0.00,WeatherCatV2.41B14,2017-04-26 14:27:00,
2017-04-26 09:32:00,77.5,44.5,29.50,WSW,254,0.0,4.0,31,0.00,,,0.00,WeatherCatV2.41B14,2017-04-26 14:32:00,
2017-04-26 09:37:00,77.7,44.6,29.50,SW,234,0.0,1.0,31,0.00,,,0.00,WeatherCatV2.41B14,2017-04-26 14:37:00,
2017-04-26 09:42:00,78.1,45.0,29.50,SW,235,0.0,1.0,31,0.00,,,0.00,WeatherCatV2.41B14,2017-04-26 14:42:00,
2017-04-26 09:47:00,78.6,46.2,29.51,WSW,243,0.0,4.0,32,0.00,,,0.00,WeatherCatV2.41B14,2017-04-26 14:47:00,
2017-04-26 09:52:00,78.7,47.2,29.51,WSW,241,0.0,3.0,33,0.00,,,0.00,WeatherCatV2.41B14,2017-04-26 14:52:00,
2017-04-26 09:57:00,79.0,47.4,29.51,West,266,0.0,4.0,33,0.00,,,0.00,WeatherCatV2.41B14,2017-04-26 14:57:00,
2017-04-26 10:02:00,79.1,49.1,29.51,NW,324,0.0,0.0,35,0.00,,,0.00,WeatherCatV2.41B14,2017-04-26 15:02:00,
2017-04-26 10:07:00,79.3,49.2,29.52,NW,313,0.0,6.0,35,0.00,,,0.00,WeatherCatV2.41B14,2017-04-26 15:07:00,
2017-04-26 10:12:00,79.4,50.1,29.52,WNW,296,0.0,7.0,36,0.00,,,0.00,WeatherCatV2.41B14,2017-04-26 15:12:00,
2017-04-26 10:17:00,79.5,50.9,29.52,WNW,287,0.0,5.0,37,0.00,,,0.00,WeatherCatV2.41B14,2017-04-26 15:17:00,
2017-04-26 10:22:00,79.8,51.9,29.52,NNW,332,5.0,8.0,38,0.00,,,0.00,WeatherCatV2.41B14,2017-04-26 15:22:00,
2017-04-26 10:27:00,80.2,52.3,29.52,WNW,297,0.0,2.0,38,0.00,,,0.00,WeatherCatV2.41B14,2017-04-26 15:27:00,
2017-04-26 10:32:00,80.5,53.2,29.52,NNW,348,4.0,6.0,39,0.00,,,0.00,WeatherCatV2.41B14,2017-04-26 15:32:00,
2017-04-26 10:37:00,80.6,54.7,29.52,NW,322,2.0,3.0,41,0.00,,,0.00,WeatherCatV2.41B14,2017-04-26 15:37:00,
2017-04-26 10:42:00,80.7,55.5,29.52,NW,311,6.0,7.0,42,0.00,,,0.00,WeatherCatV2.41B14,2017-04-26 15:42:00,
2017-04-26 10:47:00,80.7,56.1,29.53,WSW,257,1.0,9.0,43,0.00,,,0.00,WeatherCatV2.41B14,2017-04-26 15:47:00,
2017-04-26 10:52:00,80.9,56.9,29.53,NNW,340,8.0,8.0,44,0.00,,,0.00,WeatherCatV2.41B14,2017-04-26 15:52:00,
2017-04-26 10:57:00,80.9,58.2,29.53,West,281,5.0,8.0,46,0.00,,,0.00,WeatherCatV2.41B14,2017-04-26 15:57:00,
2017-04-26 11:02:00,81.1,58.9,29.53,NNW,330,3.0,11.0,47,0.00,,,0.00,WeatherCatV2.41B14,2017-04-26 16:02:00,
2017-04-26 11:07:00,81.4,59.2,29.53,NW,304,0.0,7.0,47,0.00,,,0.00,WeatherCatV2.41B14,2017-04-26 16:07:00,
2017-04-26 11:12:00,81.6,60.0,29.53,NW,321,7.0,11.0,48,0.00,,,0.00,WeatherCatV2.41B14,2017-04-26 16:12:00,
2017-04-26 11:17:00,81.8,61.3,29.53,NNW,340,0.0,7.0,50,0.00,,,0.00,WeatherCatV2.41B14,2017-04-26 16:17:00,
2017-04-26 11:22:00,82.0,62.1,29.53,NNW,331,0.0,3.0,51,0.00,,,0.00,WeatherCatV2.41B14,2017-04-26 16:22:00,
2017-04-26 11:27:00,82.5,62.5,29.53,NW,319,3.0,4.0,51,0.00,,,0.00,WeatherCatV2.41B14,2017-04-26 16:27:00,
2017-04-26 11:32:00,82.8,63.9,29.54,WNW,293,3.0,9.0,53,0.00,,,0.00,WeatherCatV2.41B14,2017-04-26 16:32:00,
2017-04-26 11:37:00,82.9,65.0,29.54,North,5,9.0,11.0,55,0.00,,,0.00,WeatherCatV2.41B14,2017-04-26 16:37:00,
2017-04-26 11:42:00,83.0,65.7,29.54,NW,325,9.0,9.0,56,0.00,,,0.00,WeatherCatV2.41B14,2017-04-26 16:42:00,
2017-04-26 11:47:00,83.3,66.9,29.54,NNW,327,5.0,11.0,58,0.00,,,0.00,WeatherCatV2.41B14,2017-04-26 16:47:00,
2017-04-26 11:52:00,83.7,67.8,29.54,NW,325,7.0,10.0,59,0.00,,,0.00,WeatherCatV2.41B14,2017-04-26 16:52:00,
2017-04-26 11:57:00,84.0,68.6,29.54,NNW,332,6.0,12.0,60,0.00,,,0.00,WeatherCatV2.41B14,2017-04-26 16:57:00,
2017-04-26 12:02:00,84.1,70.1,29.55,North,355,5.0,10.0,63,0.00,,,0.00,WeatherCatV2.41B14,2017-04-26 17:02:00,
2017-04-26 12:07:00,84.5,70.9,29.54,NE,38,6.0,12.0,64,0.00,,,0.00,WeatherCatV2.41B14,2017-04-26 17:07:00,
2017-04-26 12:12:00,84.8,72.6,29.54,NNE,12,9.0,12.0,67,0.00,,,0.00,WeatherCatV2.41B14,2017-04-26 17:12:00,
2017-04-26 12:17:00,85.2,73.4,29.54,North,355,11.0,15.0,68,0.00,,,0.00,WeatherCatV2.41B14,2017-04-26 17:17:00,
2017-04-26 12:22:00,85.6,74.7,29.54,North,0,11.0,14.0,70,0.00,,,0.00,WeatherCatV2.41B14,2017-04-26 17:22:00,
2017-04-26 12:27:00,86.1,75.1,29.54,North,5,11.0,15.0,70,0.00,,,0.00,WeatherCatV2.41B14,2017-04-26 17:27:00,
2017-04-26 12:32:00,86.5,75.5,29.54,North,11,7.0,8.0,70,0.00,,,0.00,WeatherCatV2.41B14,2017-04-26 17:32:00,
2017-04-26 12:37:00,87.0,75.6,29.54,NNW,336,9.0,14.0,69,0.00,,,0.00,WeatherCatV2.41B14,2017-04-26 17:37:00,
2017-04-26 12:42:00,87.1,75.2,29.54,NNE,24,2.0,14.0,68,0.00,,,0.00,WeatherCatV2.41B14,2017-04-26 17:42:00,
2017-04-26 12:47:00,87.3,74.5,29.54,NNE,21,7.0,19.0,66,0.00,,,0.00,WeatherCatV2.41B14,2017-04-26 17:47:00,
2017-04-26 12:52:00,87.4,74.6,29.54,North,351,11.0,12.0,66,0.00,,,0.00,WeatherCatV2.41B14,2017-04-26 17:52:00,
2017-04-26 12:57:00,87.5,73.3,29.54,NNW,330,12.0,17.0,63,0.00,,,0.00,WeatherCatV2.41B14,2017-04-26 17:57:00,
2017-04-26 13:02:00,87.6,73.4,29.54,North,0,7.0,13.0,63,0.00,,,0.00,WeatherCatV2.41B14,2017-04-26 18:02:00,
2017-04-26 13:07:00,88.1,73.4,29.54,North,10,10.0,13.0,62,0.00,,,0.00,WeatherCatV2.41B14,2017-04-26 18:07:00,
2017-04-26 13:12:00,88.2,72.0,29.54,North,10,7.0,15.0,59,0.00,,,0.00,WeatherCatV2.41B14,2017-04-26 18:12:00,
2017-04-26 13:17:00,88.2,71.0,29.54,NNW,334,15.0,20.0,57,0.00,,,0.00,WeatherCatV2.41B14,2017-04-26 18:17:00,
2017-04-26 13:22:00,88.2,71.0,29.53,North,350,5.0,14.0,57,0.00,,,0.00,WeatherCatV2.41B14,2017-04-26 18:22:00,
2017-04-26 13:27:00,88.4,70.1,29.54,NNW,345,15.0,17.0,55,0.00,,,0.00,WeatherCatV2.41B14,2017-04-26 18:27:00,
2017-04-26 13:32:00,88.4,70.1,29.53,NNE,32,7.0,12.0,55,0.00,,,0.00,WeatherCatV2.41B14,2017-04-26 18:32:00,
2017-04-26 13:37:00,88.8,70.0,29.53,NW,321,7.0,11.0,54,0.00,,,0.00,WeatherCatV2.41B14,2017-04-26 18:37:00,
2017-04-26 13:42:00,89.0,69.1,29.54,NNE,17,12.0,21.0,52,0.00,,,0.00,WeatherCatV2.41B14,2017-04-26 18:42:00,
2017-04-26 13:47:00,88.8,68.3,29.54,North,5,12.0,18.0,51,0.00,,,0.00,WeatherCatV2.41B14,2017-04-26 18:47:00,
2017-04-26 13:52:00,88.8,67.1,29.54,NNW,333,13.0,13.0,49,0.00,,,0.00,WeatherCatV2.41B14,2017-04-26 18:52:00,
2017-04-26 13:57:00,88.8,65.9,29.54,NW,326,13.0,21.0,47,0.00,,,0.00,WeatherCatV2.41B14,2017-04-26 18:57:00,
2017-04-26 14:02:00,88.8,66.5,29.54,WNW,294,8.0,14.0,48,0.00,,,0.00,WeatherCatV2.41B14,2017-04-26 19:02:00,
2017-04-26 14:07:00,88.9,65.4,29.54,NW,323,14.0,19.0,46,0.00,,,0.00,WeatherCatV2.41B14,2017-04-26 19:07:00,
2017-04-26 14:12:00,88.9,66.0,29.54,NNE,17,3.0,13.0,47,0.00,,,0.00,WeatherCatV2.41B14,2017-04-26 19:12:00,
2017-04-26 14:17:00,89.1,66.2,29.54,NNW,340,4.0,8.0,47,0.00,,,0.00,WeatherCatV2.41B14,2017-04-26 19:17:00,
2017-04-26 14:22:00,89.2,65.0,29.54,NNE,16,10.0,15.0,45,0.00,,,0.00,WeatherCatV2.41B14,2017-04-26 19:22:00,
2017-04-26 14:27:00,89.2,65.0,29.54,North,5,5.0,8.0,45,0.00,,,0.00,WeatherCatV2.41B14,2017-04-26 19:27:00,
2017-04-26 14:32:00,89.5,64.7,29.54,North,11,8.0,15.0,44,0.00,,,0.00,WeatherCatV2.41B14,2017-04-26 19:32:00,
2017-04-26 14:37:00,89.4,64.6,29.54,NNW,342,3.0,10.0,44,0.00,,,0.00,WeatherCatV2.41B14,2017-04-26 19:37:00,
2017-04-26 14:42:00,89.6,64.1,29.54,North,351,4.0,9.0,43,0.00,,,0.00,WeatherCatV2.41B14,2017-04-26 19:42:00,
2017-04-26 14:47:00,90.0,63.8,29.54,NNW,339,10.0,16.0,42,0.00,,,0.00,WeatherCatV2.41B14,2017-04-26 19:47:00,
2017-04-26 14:52:00,90.1,63.2,29.54,NNW,342,3.0,13.0,41,0.00,,,0.00,WeatherCatV2.41B14,2017-04-26 19:52:00,
2017-04-26 14:57:00,90.4,63.5,29.54,North,349,9.0,14.0,41,0.00,,,0.00,WeatherCatV2.41B14,2017-04-26 19:57:00,
2017-04-26 15:02:00,90.4,62.0,29.54,NNW,334,4.0,19.0,39,0.00,,,0.00,WeatherCatV2.41B14,2017-04-26 20:02:00,
2017-04-26 15:07:00,90.3,61.9,29.54,NNW,336,11.0,17.0,39,0.00,,,0.00,WeatherCatV2.41B14,2017-04-26 20:07:00,
2017-04-26 15:12:00,90.4,62.0,29.54,North,9,5.0,12.0,39,0.00,,,0.00,WeatherCatV2.41B14,2017-04-26 20:12:00,
2017-04-26 15:17:00,90.6,61.5,29.53,NNE,12,4.0,16.0,38,0.00,,,0.00,WeatherCatV2.41B14,2017-04-26 20:17:00,
2017-04-26 15:22:00,90.4,60.5,29.54,NNW,333,15.0,17.0,37,0.00,,,0.00,WeatherCatV2.41B14,2017-04-26 20:22:00,
2017-04-26 15:27:00,90.5,60.6,29.54,NNW,334,10.0,15.0,37,0.00,,,0.00,WeatherCatV2.41B14,2017-04-26 20:27:00,
2017-04-26 15:32:00,90.4,59.8,29.53,North,0,7.0,17.0,36,0.00,,,0.00,WeatherCatV2.41B14,2017-04-26 20:32:00,
2017-04-26 15:37:00,90.3,59.7,29.54,North,5,10.0,10.0,36,0.00,,,0.00,WeatherCatV2.41B14,2017-04-26 20:37:00,
2017-04-26 15:42:00,90.3,58.9,29.54,North,0,12.0,15.0,35,0.00,,,0.00,WeatherCatV2.41B14,2017-04-26 20:42:00,
2017-04-26 15:47:00,90.1,58.7,29.54,North,0,3.0,16.0,35,0.00,,,0.00,WeatherCatV2.41B14,2017-04-26 20:47:00,
2017-04-26 15:52:00,90.1,58.7,29.54,NNE,15,14.0,16.0,35,0.00,,,0.00,WeatherCatV2.41B14,2017-04-26 20:52:00,
2017-04-26 15:57:00,90.2,58.0,29.54,NNW,348,11.0,22.0,34,0.00,,,0.00,WeatherCatV2.41B14,2017-04-26 20:57:00,
2017-04-26 16:02:00,90.1,57.9,29.54,NNE,30,5.0,14.0,34,0.00,,,0.00,WeatherCatV2.41B14,2017-04-26 21:02:00,
2017-04-26 16:07:00,90.2,58.0,29.54,NE,42,9.0,14.0,34,0.00,,,0.00,WeatherCatV2.41B14,2017-04-26 21:07:00,
2017-04-26 16:12:00,90.1,57.1,29.54,NNW,338,10.0,18.0,33,0.00,,,0.00,WeatherCatV2.41B14,2017-04-26 21:12:00,
2017-04-26 16:17:00,90.0,57.0,29.53,North,5,14.0,17.0,33,0.00,,,0.00,WeatherCatV2.41B14,2017-04-26 21:17:00,
2017-04-26 16:22:00,90.0,56.1,29.54,NNW,340,13.0,21.0,32,0.00,,,0.00,WeatherCatV2.41B14,2017-04-26 21:22:00,
2017-04-26 16:27:00,89.8,56.0,29.54,NNW,348,7.0,17.0,32,0.00,,,0.00,WeatherCatV2.41B14,2017-04-26 21:27:00,
2017-04-26 16:32:00,89.8,56.0,29.54,NNW,336,13.0,21.0,32,0.00,,,0.00,WeatherCatV2.41B14,2017-04-26 21:32:00,
2017-04-26 16:37:00,89.8,55.1,29.54,NNE,18,9.0,14.0,31,0.00,,,0.00,WeatherCatV2.41B14,2017-04-26 21:37:00,
2017-04-26 16:42:00,89.5,54.8,29.54,North,11,12.0,22.0,31,0.00,,,0.00,WeatherCatV2.41B14,2017-04-26 21:42:00,
2017-04-26 16:47:00,89.4,54.7,29.54,NNW,348,12.0,15.0,31,0.00,,,0.00,WeatherCatV2.41B14,2017-04-26 21:47:00,
2017-04-26 16:52:00,89.2,53.7,29.54,North,5,11.0,18.0,30,0.00,,,0.00,WeatherCatV2.41B14,2017-04-26 21:52:00,
2017-04-26 16:57:00,89.2,53.7,29.54,North,9,5.0,10.0,30,0.00,,,0.00,WeatherCatV2.41B14,2017-04-26 21:57:00,
2017-04-26 17:02:00,89.3,53.8,29.54,NNW,348,4.0,13.0,30,0.00,,,0.00,WeatherCatV2.41B14,2017-04-26 22:02:00,
2017-04-26 17:07:00,89.3,53.8,29.54,NNW,342,8.0,19.0,30,0.00,,,0.00,WeatherCatV2.41B14,2017-04-26 22:07:00,
2017-04-26 17:12:00,89.1,52.7,29.55,NNW,332,7.0,15.0,29,0.00,,,0.00,WeatherCatV2.41B14,2017-04-26 22:12:00,
2017-04-26 17:17:00,89.0,52.6,29.55,North,5,6.0,16.0,29,0.00,,,0.00,WeatherCatV2.41B14,2017-04-26 22:17:00,